Regional Weather Roundup
Issued by NWS Upton, NY

Current Version | Previous Version | Text Only | Print | Product List | Glossary On
Versions: 1 2 3 4 5 6 7 8 9 10 11 12 13 14 15 16 17 18 19 20 21 22 23 24 25 26 27 28 29 30 31 32 33 34 35 36 37 38 39 40 41 42 43 44 45 46 47 48 49 50
000
ASUS41 KOKX 210005
RWROKX

REGIONAL WEATHER ROUNDUP
NATIONAL WEATHER SERVICE NEW YORK NY
800 PM EDT WED AUG 20 2014

NOTE: "FAIR" INDICATES FEW OR NO CLOUDS BELOW 12,000 FEET WITH NO
SIGNIFICANT WEATHER AND/OR OBSTRUCTIONS TO VISIBILITY.

NYZ071-072-176-178-NJZ106-104-210100-
NEW YORK CITY METRO AREA


CITY           SKY/WX    TMP DP  RH WIND       PRES   REMARKS
CENTRAL PARK   PTCLDY    74  56  53 VRB3      30.04R
LAGUARDIA APRT PTCLDY    75  59  57 S8        30.00R
KENNEDY INTL   PTCLDY    73  60  63 SE9       30.02R
NEWARK/LIBERTY MOCLDY    75  59  57 SE7       30.01R
BRNX BOT. GARD   N/A     73  57  56 E3        30.02R
TETERBORO      PTCLDY    76  55  48 S7        29.99R
$$

NYZ177-179-078>081-210100-
LONG ISLAND NEW YORK

CITY           SKY/WX    TMP DP  RH WIND       PRES   REMARKS
FARMINGDALE    CLEAR     71  60  68 S6        30.02R
ISLIP          PTCLDY    71  60  68 S3        30.00R
SHIRLEY        CLEAR     69  59  70 SE3       30.03R
WESTHAMPTON    CLEAR     67  58  72 CALM      30.03S
MONTAUK POINT    N/A     67  60  78 CALM      30.04S
$$

NYZ052-065-067-210100-
HUDSON VALLEY

CITY           SKY/WX    TMP DP  RH WIND       PRES   REMARKS
WHITE PLAINS   CLEAR     72  58  61 S8        30.01R
NEWBURGH       PTCLDY    77  63  61 S8        30.01R
MONTGOMERY     PTCLDY    77  60  55 S7        29.98R
POUGHKEEPSIE   MOCLDY    77  64  64 S3        29.98R
ALBANY         MOCLDY    79  65  62 SE3       29.97R
$$

NJZ001-105-106-008-010-013-015-019>022-104-210100-
NEW JERSEY

CITY           SKY/WX    TMP DP  RH WIND       PRES   REMARKS
NEWARK/LIBERTY MOCLDY    75  59  57 SE7       30.01R
TETERBORO      PTCLDY    76  55  48 S7        29.99R
CALDWELL       PTCLDY    76  53  44 CALM      30.01R
MORRISTOWN     MOCLDY    75  57  53 S6        30.01R
SOMERVILLE     MOCLDY    76  58  53 SE5       29.98R
LINDEN         FAIR      80  60  50 S7        30.02R
SUSSEX         MOCLDY    78  62  57 S5        29.99R
ANDOVER          N/A     76  61  59 VRB5      30.00R
TRENTON        PTCLDY    76  58  53 S12       30.00R
MILLVILLE      CLOUDY    74  63  68 SE6       30.01S
ATLANTIC CITY  CLEAR     70  63  78 SE6       30.02R
WRIGHTSTOWN    PTCLDY    72  61  69 SE5       29.99R
TOMS RIVER     MOCLDY    72  63  73 CALM      30.02S
BELMAR         PTCLDY    72  59  64 S5        30.02S
$$

PAZ047>061-062-071-210100-
EASTERN PENNSYLVANIA

CITY           SKY/WX    TMP DP  RH WIND       PRES   REMARKS
PHILADELPHIA   MOCLDY    78  65  63 S9        30.00R
ALLENTOWN      CLOUDY    79  63  57 SW6       29.98S
SCRANTON       CLOUDY    74  66  76 CALM      29.99S
$$

CTZ002-004>006-009-010-012-RIZ004-006-007-MAZ004-011-015-210100-
SOUTHERN NEW ENGLAND
 IN CT

CITY           SKY/WX    TMP DP  RH WIND       PRES   REMARKS
BRADLEY INTL   PTCLDY    77  61  57 S9        29.99R
HARTFORD       CLEAR     74  58  57 S6        30.00R
DANBURY        CLEAR     72  61  68 S6        30.03R
WTRBRY/OXFORD  PTCLDY    70  59  68 S6        30.05R
BRIDGEPORT     CLEAR     75  63  66 S10       30.01R
MERIDEN        CLEAR     73  56  54 S3        30.01R
NEW HAVEN      CLEAR     74  61  63 S10       30.02R
CHESTER        FAIR      68  63  83 SE6       30.04R
GROTON         CLEAR     67  59  75 SE3       30.02S
WILLIMANTIC    CLEAR     72  60  66 S5        30.03R

 IN RI

CITY           SKY/WX    TMP DP  RH WIND       PRES   REMARKS
PROVIDENCE     PTCLDY    68  59  73 S6        30.04R
BLOCK ISLAND   CLEAR     66  57  72 SE3       30.04S
WESTERLY       CLEAR     68  61  78 CALM      30.04R

 IN MA

CITY           SKY/WX    TMP DP  RH WIND       PRES   REMARKS
BOSTON         MOCLDY    65  61  87 E6        30.04S
WORCESTER      CLEAR     70  54  56 E6        30.06R
WESTFIELD      CLOUDY    73  66  78 E3        30.00R
PROVINCETOWN   PTCLDY    63  55  77 MISG      30.05S
NANTUCKET      CLEAR     63  58  83 NE7       30.03R
$$

ANZ330-335-338-340-345-350-353-355-210100-
COASTAL MARINE OBSERVATIONS


STATION/POSITION TIME  SKY/WX   TEMP    WIND        PRES    VSBY  WAVE
                                AIR SEA DIR/SP/G                  HT/PER
                 (UTC)          (F)     (DEG/KT/KT) (MB)    (MI)  (FT/S)
NY HARB ENTRANCE NOT AVBL
4S FIRE IS       NOT AVBL
23SW MTP         0000            69 70              1016.3          2/ 6
HUDSON CANYON    0000            71 73   50/  8/ 10 1016.0          3/ 6
EXECUTION ROCKS  0000            75 74  170/ 10/ 12   N/A
WESTERN LI SOUND 0000            75     170/  8/ 12   N/A           1
CENTRAL LI SOUND 2300            73 74  170/ 12/ 14   N/A           1
EASTERN LI SOUND 2300            70 69  120/  6/  8   N/A
ROBBINS REEF     0000            72     160/ 15/ 17   N/A
$$


>>>>>>>>>>>>>>>>>>>>>>>>>>>> KEY <<<<<<<<<<<<<<<<<<<<<<<<<<<
>                                                          <
>     SKY/WX - SKY CONDITION/PRESENT WEATHER               <
>     TMP    - TEMPERATURE IN FAHRENHEIT                   <
>     DP     - DEWPOINT IN FAHRENHEIT                      <
>     RH     - RELATIVE HUMIDITY IN PERCENT                <
>     WIND   - DIRECTION AND SPEED IN MPH                  <
>     PRES   - MEAN SEA LEVEL PRESSURE IN INCHES OF HG     <
>     WCI    - WIND CHILL INDEX                            <
>     VSB    - VISIBILITY IN MILES                         <
>     HX     - HEAT INDEX                                  <
>     TC     - TEMPERATURE IN CELSIUS                      <
>     VRB    - VARIABLE WIND DIRECTION                     <
>                                                          <
>>>>>>>>>>>>>>>>>>>>>>>>>>>> KEY <<<<<<<<<<<<<<<<<<<<<<<<<<<




USA.gov is the U.S. government's official web portal to all federal, state and local government web resources and services.